Location: *
(43.4667°N, 11.6833°E)
Time: 23:16:58
(UTC+00:00)

Cosmos 1606 - Pass Details

Date: 19 July 2019
Orbit: 504 x 529 km, 82.5° (Epoch: 20 August)

Event Time Altitude Azimuth Distance (km) Brightness Sun altitude
Rises 20:57:48 0° 351° (N) 2,617 7.4 -18.0°
Reaches altitude 10° 20:59:56 10° 351° (N) 1,726 6.3 -18.2°
Maximum altitude 21:03:43 87° 262° (W) 511 2.6 -18.6°
Enters shadow 21:04:41 49° 176° (S) 662 2.8 -18.7°
